Regional Weather Roundup
Issued by NWS Lake Charles, LA

Home | Current Version | Previous Version | Text Only | Print | Product List | Glossary On
Versions: 1 2 3 4 5 6 7 8 9 10 11 12 13 14 15 16 17 18 19 20 21 22 23 24 25 26 27 28 29 30 31 32 33 34 35 36 37 38 39 40 41 42 43 44 45 46 47 48 49 50
000
ASUS44 KLCH 210810
RWRLCH
RWRLCH
REGIONAL WEATHER ROUNDUP
NATIONAL WEATHER SERVICE LAKE CHARLES LA
300 AM CDT SUN SEP 21 2014

Note: "fair" indicates few or no clouds below 12,000 feet with no
significant weather and/or obstructions to visibility.


ACROSS SOUTHEAST TEXAS

CITY           SKY/WX    TMP DP  RH WIND       PRES   REMARKS
BEAUMONT       CLEAR     75  72  90 NE7       29.96S
BEAUMONT CITY    N/A     72  70  92 CALM      29.97S
ORANGE         SUNNY    N/A N/A N/A CALM      29.99S
JASPER         CLEAR     67  66  96 CALM      30.02S FOG
$$

ACROSS CENTRAL LOUISIANA

CITY           SKY/WX    TMP DP  RH WIND       PRES   REMARKS
LEESVILLE      CLEAR     70  68  93 CALM      29.99F
FULLERTON        N/A     70  66  87 CALM      29.97F
ALEXANDRIA INT CLEAR     68  67  96 CALM      29.98S FOG
ESLER FIELD    CLEAR     68  66  93 CALM      29.99F FOG
DERIDDER         N/A     69  68  96 CALM      30.01S FOG
OAKDALE        SUNNY     66  65  96 CALM      29.99S
OPELOUSAS        N/A     68  67  99 CALM      29.98F FOG
$$

ACROSS SOUTHWEST AND SOUTH CENTRAL LOUISIANA

CITY           SKY/WX    TMP DP  RH WIND       PRES   REMARKS
SULPHUR        SUNNY     71  70  95 CALM      29.98S
LAKE CHARLES   CLEAR     71  69  93 CALM      29.98R
CHENNAULT INT  CLEAR     71  69  93 N3        29.99R
CAMERON PHI      N/A     73  70  88 E5        29.99S
DEQUINCY         N/A     68  67  97 CALM      29.99S
JENNINGS         N/A     70  69  96 CALM      29.98S
LAFAYETTE      CLEAR     71  70  96 NE5       29.98S
NEW IBERIA     CLEAR     74  71  91 NE5       29.98S
ABBEVILLE        N/A     69  68  97 CALM      29.98R
PATTERSON      CLEAR     72  70  94 NE3       29.99S
SALT POINT       N/A     75  72  90 CALM      29.95F
$$

SELECTED SITES ACROSS THE REGION

CITY           SKY/WX    TMP DP  RH WIND       PRES   REMARKS
HOUSTON BUSH   PTCLDY    75  72  90 N3        29.97S
HOUSTON HOBBY  PTCLDY    78  75  90 NE5       29.96R
GALVESTON      CLEAR     82  73  74 E10       29.95S
COLLEGE STAT   CLEAR     73  69  87 CALM      29.99S
CONROE         CLEAR     70  69  97 CALM      29.99S
HUNTSVILLE     CLEAR     70  68  93 CALM      30.00R
LUFKIN         CLEAR     71  66  84 CALM      30.00S
SHREVEPORT     CLEAR     70  66  87 CALM      30.00S
MONROE         CLEAR     70  68  93 CALM      30.00F FOG
NATCHEZ MS     CLEAR     70  66  88 CALM      30.01S
BATON ROUGE    CLEAR     71  69  93 NE5       29.99R
N.O. INTL ARPT CLEAR     77  68  73 E3        29.96F
SLIDELL        CLEAR     69  66  90 NE3       29.97F
$$

MARINE REPORTS

STATION/POSITION TIME  TEMP    WIND        PRES    VSBY  WAVE
                       AIR SEA DIR/SP/G                  HT/PER
                 (UTC) (F)     (DEG/KT/KT) (MB)    (MI)  (FT/S)
BUOY 30 S HIGH I 0800   83 83   90/ 14/ 17 1013.4R         4/ 5
SEA RIM ST PARK  0800   75      50/  5/  5 1015.1R
PORT ARTHUR      0800      83   50/  1/  3 1014.8S
SABINE PASS N    0800   76 82   40/  6/  7 1014.7S
TEXAS POINT      0800   77 82   30/  7/  9 1014.7F
CALCASIEU PASS   0800   74 83   80/  6/  7 1015.7R
LK CHARLES BEACH 0800   75 84              1015.1R
MARSH ISLAND     NOT AVBL
FRESH WATER LOCK 0800   74 83   30/  5/  6 1014.3F
AMERADA PASS     0800   74 82   40/  2/  4 1014.4R
$$


USA.gov is the U.S. government's official web portal to all federal, state and local government web resources and services.